Location: La Oliva
(42.2466°N, 2.9955°E)
Time: 11:32:37
(UTC+00:00)

USA 229 DEB - Pass Details

Date: 22 April 2021
Orbit: 960 x 1252 km, 63.4° (Epoch: 23 April)

Event Time Altitude Azimuth Distance (km) Brightness Sun altitude
Rises 22:16:53 0° 324° (NW) 3,979 7.8 -31.5°
Reaches altitude 10° 22:19:30 10° 324° (NW) 3,056 6.9 -31.7°
Maximum altitude 22:26:55 89° 52° (NE) 1,210 3.8 -32.3°
Enters shadow 22:27:01 88° 119° (ESE) 1,211 3.8 -32.3°
